Printer-friendly version

IAU Minor Planet Center

Minor Planet Center

MPEC 2000-H29: 2000 GJ147

The following Minor Planet Electronic Circular may be linked-to from your own Web pages, but must not otherwise be redistributed electronically.


Read MPEC 2000-H28 Read MPEC 2000-H30


M.P.E.C. 2000-H29                                Issued 2000 Apr. 22, 18:35 UT

     The Minor Planet Electronic Circulars contain information on unusual
         minor planets and routine data on comets.  They are published
   on behalf of Commission 20 of the International Astronomical Union by the
          Minor Planet Center, Smithsonian Astrophysical Observatory,
                          Cambridge, MA 02138, U.S.A.

             Prepared using the Tamkin Foundation Computer Network

             BMARSDEN@CFA.HARVARD.EDU or GWILLIAMS@CFA.HARVARD.EDU
          URL http://cfa-www.harvard.edu/iau/mpc.html  ISSN 1523-6714

                                  2000 GJ147

Observations:
     K00GE7J* C2000 04 13.27715 16 12 25.37 +54 02 43.2          18.6 R      699
     K00GE7J  C2000 04 13.29360 16 12 23.95 +54 03 03.2                      699
     K00GE7J  C2000 04 13.30997 16 12 22.34 +54 03 26.2                      699
     K00GE7J  C2000 04 13.32632 16 12 20.82 +54 03 46.1                      699
     K00GE7J  C2000 04 15.06056 16 09 44.08 +54 40 38.3          18.1 R      046
     K00GE7J  C2000 04 15.06194 16 09 44.01 +54 40 40.2                      046
     K00GE7J  C2000 04 15.06295 16 09 43.78 +54 40 41.3                      046
     K00GE7J  C2000 04 15.06398 16 09 43.69 +54 40 41.9                      046
     K00GE7J  C2000 04 15.06505 16 09 43.55 +54 40 43.3          18.2 R      046
     K00GE7J 4C2000 04 15.37656 16 09 13.42 +54 47 32.0                      673
     K00GE7J 4C2000 04 15.38354 16 09 12.57 +54 47 41.2                      673
     K00GE7J 4C2000 04 15.38904 16 09 11.86 +54 47 48.2                      673
     K00GE7J  C2000 04 17.01122 16 06 10.76 +55 22 59.1                      557
     K00GE7J  C2000 04 17.01465 16 06 10.27 +55 23 04.1                      557
     K00GE7J  C2000 04 17.01823 16 06 09.79 +55 23 09.5                      557
     K00GE7J  C2000 04 20.80656 15 56 51.21 +56 48 05.0                      557
     K00GE7J  C2000 04 20.80819 15 56 50.90 +56 48 07.5                      557
     K00GE7J  C2000 04 20.80983 15 56 50.64 +56 48 10.5                      557
     K00GE7J  C2000 04 20.81147 15 56 50.36 +56 48 12.6                      557
     K00GE7J  C2000 04 21.01517 15 56 11.53 +56 53 12.3                      118
     K00GE7J  C2000 04 21.02194 15 56 09.95 +56 53 21.7                      118
     K00GE7J  C2000 04 21.02546 15 56 09.25 +56 53 26.8                      118
     K00GE7J IC2000 04 21.81924 15 53 42.02 +57 11 35.2                      557
     K00GE7J  C2000 04 21.81962 15 53 42.05 +57 11 34.2          18.3 R      540
     K00GE7J  C2000 04 21.82122 15 53 41.53 +57 11 38.7                      557
     K00GE7J  C2000 04 21.82240 15 53 41.44 +57 11 39.9                      540
     K00GE7J  C2000 04 21.82319 15 53 41.14 +57 11 41.4                      557
     K00GE7J  C2000 04 21.82517 15 53 40.82 +57 11 44.7                      540
     K00GE7J  C2000 04 21.82795 15 53 40.33 +57 11 48.9                      540

Observer details:
046 Klet.  Observers J. Ticha, M. Tichy.  0.57-m f/5.2 reflector + CCD.
118 Modra.  Observers L. Kornos, P. Koleny.  0.6-m f/5.5 reflector + CCD.
540 Linz.  Observer E. Meyer.  0.6-m f/3.0 reflector + CCD.
557 Ondrejov.  Observers L. Sarounova, P. Kusnirak.  0.65-m f/3.6 reflector
    + CCD.
673 Table Mountain Observatory, Wrightwood.  Observers M. Hicks, D. Deaver.
    0.6-m reflector + CCD.
699 Lowell Observatory-LONEOS.  Observers B. A. Skiff.  Measurer B. W. Koehn.
    0.59-m LONEOS Schmidt + CCD.

Orbital elements:
2000 GJ147                                                           PHA 0.017D
Epoch 2000 Apr. 6.0 TT = JDT 2451640.5                  Williams
M 286.14329              (2000.0)            P               Q
n   0.77493099     Peri.  240.05102     +0.39645550     +0.84209694
a   1.1738899      Node    57.87758     -0.62039539     +0.53932509
e   0.2452098      Incl.   25.57787     -0.67670717     -0.00109477
P   1.27           H   19.0           G   0.15
From 25 observations 2000 Apr. 13-21.

Ephemeris:
2000 GJ147               a,e,i = 1.17, 0.25, 26                  q = 0.8860
Date    TT    R. A. (2000) Decl.     Delta      r     Elong.  Phase     V
2000 04 16    16 08.11   +55 00.8    0.286    1.124   107.6    58.4    18.6
2000 04 21    15 56.23   +56 52.7    0.250    1.104   106.9    60.6    18.4
2000 04 26    15 36.70   +58 51.5    0.213    1.083   105.7    63.4    18.1
2000 05 01    15 04.22   +60 51.8    0.176    1.064   103.8    66.9    17.7
2000 05 06    14 08.41   +62 23.1    0.141    1.044   100.6    71.8    17.3
2000 05 11    12 34.55   +61 17.3    0.107    1.025    94.8    79.2    17.0
2000 05 16    10 31.47   +51 23.9    0.081    1.006    83.9    91.5    16.8
2000 05 21    08 49.93   +26 57.5    0.069    0.988    67.6   108.7    17.3
2000 05 26    07 46.70   -00 05.1    0.081    0.971    56.4   119.6    18.3

2000 06 05    06 42.01   -25 34.8    0.143    0.940    54.9   118.0    19.3
2000 06 15    06 09.91   -32 50.4    0.218    0.915    56.8   111.7    19.8
2000 06 25    05 51.50   -34 26.7    0.294    0.897    58.1   105.7    20.0
2000 07 05    05 41.48   -33 37.3    0.365    0.887    59.2   100.0    20.2
2000 07 15    05 37.49   -31 30.8    0.429    0.887    60.4    94.7    20.3
2000 07 25    05 38.23   -28 39.7    0.483    0.896    61.9    89.8    20.3
2000 08 04    05 42.63   -25 25.1    0.524    0.913    63.8    85.3    20.4
2000 08 14    05 49.58   -21 58.3    0.552    0.938    66.2    81.2    20.4
2000 08 24    05 58.29   -18 25.3    0.566    0.968    69.3    77.6    20.4
2000 09 03    06 07.89   -14 48.0    0.566    1.003    73.2    74.2    20.4
2000 09 13    06 17.53   -11 02.7    0.552    1.041    77.9    70.8    20.3
2000 09 23    06 26.43   -07 01.5    0.528    1.081    83.7    67.3    20.2
2000 10 03    06 33.51   -02 31.3    0.493    1.121    90.7    63.2    20.0
2000 10 13    06 37.39   +02 48.9    0.453    1.161    99.4    58.0    19.7

2000 10 23    06 36.21   +09 25.7    0.411    1.200   110.1    51.2    19.4
2000 10 28    06 32.84   +13 21.5    0.391    1.218   116.3    47.0    19.2
2000 11 02    06 27.02   +17 45.0    0.373    1.237   123.2    42.2    19.0
2000 11 07    06 18.24   +22 34.4    0.359    1.254   130.7    36.8    18.8
2000 11 12    06 06.02   +27 42.7    0.349    1.272   138.4    31.1    18.6
2000 11 17    05 49.93   +32 56.4    0.344    1.288   145.9    25.5    18.4
2000 11 22    05 29.85   +37 56.2    0.346    1.304   152.2    20.7    18.3
2000 11 27    05 06.27   +42 21.0    0.356    1.319   156.0    17.7    18.3
2000 12 02    04 40.49   +45 54.3    0.372    1.334   156.0    17.5    18.4
2000 12 07    04 14.48   +48 29.7    0.394    1.348   152.9    19.5    18.6
2000 12 12    03 50.27   +50 11.2    0.422    1.361   148.0    22.5    18.9
2000 12 17    03 29.41   +51 09.4    0.455    1.373   142.6    25.8    19.2
2000 12 22    03 12.72   +51 36.9    0.492    1.385   137.2    28.9    19.4
2000 12 27    03 00.34   +51 45.0    0.531    1.396   132.0    31.6    19.7
2001 01 01    02 52.02   +51 42.5    0.573    1.406   127.2    33.9    19.9
2001 01 06    02 47.25   +51 35.3    0.617    1.415   122.7    35.8    20.2
2001 01 11    02 45.51   +51 27.2    0.661    1.423   118.5    37.4    20.4

2001 01 21    02 49.28   +51 14.4    0.753    1.438   111.0    39.7    20.7
2001 01 31    03 00.55   +51 10.3    0.845    1.449   104.4    41.2    21.1
2001 02 10    03 17.43   +51 14.0    0.935    1.456    98.5    42.1    21.3
2001 02 20    03 38.65   +51 20.8    1.022    1.461    93.2    42.5    21.5
2001 03 02    04 03.45   +51 25.9    1.105    1.462    88.3    42.7    21.7
2001 03 12    04 31.20   +51 24.2    1.182    1.459    83.8    42.6    21.8
2001 03 22    05 01.29   +51 10.2    1.253    1.453    79.6    42.4    21.9
2001 04 01    05 33.21   +50 39.1    1.317    1.444    75.7    42.1    22.0

Gareth V. Williams           (C) Copyright 2000 MPC           M.P.E.C. 2000-H29

Read MPEC 2000-H28 Read MPEC 2000-H30


Our Web policy. Index to the CBAT/MPC/ICQ pages.


Valid HTML 4.01!